#ZEITBEREICH: 16.04.2023 bis 16.04.2024
Datum;Zeit;AABU F AM1H [%];AABU NO AM1H [�g/m�];AABU NO2 AM1H [�g/m�];AABU O3 AM1H [�g/m�];AABU PM10F GM24H [�g/m�];AABU T AM1H [�C];AABU WG SM1H [m/s];AABU WR VM1H [�]
16.04.2023;01:00;95,1;<7;<10;;12;6,4;3,1;317
16.04.2023;02:00;95,9;<7;<10;62;12;6,3;3,2;312
16.04.2023;03:00;96,5;<7;<10;59;12;6,2;3,3;312
16.04.2023;04:00;96,9;<7;<10;55;12;6,2;3,1;304
16.04.2023;05:00;97,3;<7;<10;51;12;6,2;2,9;304
16.04.2023;06:00;97,7;<7;<10;48;12;6,3;2,2;293
16.04.2023;07:00;98,0;<7;<10;45;12;6,4;2,4;302
16.04.2023;08:00;98,1;<7;<10;41;12;6,8;2,5;317
16.04.2023;09:00;98,2;<7;<10;41;12;7,0;2,9;316
16.04.2023;10:00;98,2;<7;<10;41;11;7,3;2,9;322
16.04.2023;11:00;98,1;<7;<10;40;11;7,6;2,8;322
16.04.2023;12:00;97,7;<7;<10;41;11;7,9;2,8;322
16.04.2023;13:00;97,1;<7;<10;47;11;8,3;2,3;334
16.04.2023;14:00;94,3;<7;<10;53;12;9,2;2,2;302
16.04.2023;15:00;92,3;<7;<10;54;12;9,5;2,4;290
16.04.2023;16:00;90,2;;;55;12;10,0;2,9;295
16.04.2023;17:00;88,6;<7;<10;54;13;10,1;3,3;300
16.04.2023;18:00;88,9;<7;<10;53;14;9,8;3,0;297
16.04.2023;19:00;89,3;<7;11;51;14;9,6;2,3;300
16.04.2023;20:00;88,4;<7;14;51;15;9,6;2,7;312
16.04.2023;21:00;88,0;<7;13;54;15;9,4;2,8;314
16.04.2023;22:00;90,4;<7;13;48;16;9,1;2,7;306
16.04.2023;23:00;90,8;<7;11;52;17;8,9;2,9;318
16.04.2023;24:00;90,5;<7;<10;58;18;8,8;2,6;328
17.04.2023;01:00;90,8;<7;<10;62;18;8,6;2,4;337
17.04.2023;02:00;92,6;<7;<10;;19;8,3;2,2;338
17.04.2023;03:00;95,9;<7;<10;62;20;7,9;2,4;339
17.04.2023;04:00;96,8;<7;<10;62;21;7,7;2,6;329
17.04.2023;05:00;97,0;<7;<10;64;22;7,4;2,7;333
17.04.2023;06:00;97,5;<7;<10;58;23;7,3;2,2;337
17.04.2023;07:00;97,9;<7;15;47;23;7,4;2,1;354
17.04.2023;08:00;97,9;<7;20;38;24;7,6;2,4;359
17.04.2023;09:00;97,1;<7;20;33;25;8,1;2,1;21
17.04.2023;10:00;95,6;<7;20;31;27;8,2;2,7;19
17.04.2023;11:00;94,4;<7;22;31;29;8,3;2,4;26
17.04.2023;12:00;92,5;<7;20;34;30;8,9;2,4;20
17.04.2023;13:00;85,0;<7;17;44;31;10,4;2,4;34
17.04.2023;14:00;69,6;<7;13;69;32;12,4;3,2;38
17.04.2023;15:00;58,2;<7;13;85;32;13,4;3,3;44
17.04.2023;16:00;52,1;<7;11;91;32;14,8;3,4;32
17.04.2023;17:00;51,1;;;96;32;14,4;4,3;32
17.04.2023;18:00;50,2;<7;<10;97;32;14,3;4,4;30
17.04.2023;19:00;47,9;<7;<10;101;32;14,0;4,1;37
17.04.2023;20:00;53,4;<7;16;94;32;12,2;2,3;39
17.04.2023;21:00;62,2;<7;23;76;32;9,9;1,0;
17.04.2023;22:00;81,0;<7;19;41;32;6,8;0,2;
17.04.2023;23:00;86,4;<7;14;34;32;6,5;0,4;
17.04.2023;24:00;87,1;<7;11;34;32;6,5;0,8;196
18.04.2023;01:00;88,1;<7;<10;42;32;5,3;0,3;
18.04.2023;02:00;90,7;<7;<10;;32;4,0;0,3;
18.04.2023;03:00;93,3;<7;12;;32;3,1;0,8;195
18.04.2023;04:00;94,5;<7;12;;32;2,5;0,5;
18.04.2023;05:00;95,2;<7;15;;31;1,9;0,0;
18.04.2023;06:00;95,8;<7;23;;32;1,3;0,4;
18.04.2023;07:00;96,3;13;29;12;32;1,9;0,5;
18.04.2023;08:00;88,6;13;31;26;32;5,0;1,4;
18.04.2023;09:00;73,6;<7;12;61;32;8,1;3,7;82
18.04.2023;10:00;69,0;<7;10;65;31;9,2;4,3;72
18.04.2023;11:00;66,3;<7;12;65;29;9,7;4,7;79
18.04.2023;12:00;62,0;<7;<10;71;28;10,7;4,7;85
18.04.2023;13:00;58,7;<7;<10;73;27;12,4;4,3;73
18.04.2023;14:00;59,8;<7;<10;76;26;12,7;4,5;66
18.04.2023;15:00;59,8;<7;<10;72;26;13,3;4,3;75
18.04.2023;16:00;62,1;<7;<10;67;26;13,1;3,8;67
18.04.2023;17:00;65,6;<7;14;56;25;12,9;3,6;49
18.04.2023;18:00;61,1;;;67;25;13,6;3,4;74
18.04.2023;19:00;58,4;<7;<10;78;25;13,4;3,6;78
18.04.2023;20:00;61,7;<7;12;72;25;12,2;2,2;70
18.04.2023;21:00;69,5;<7;17;61;24;11,1;2,3;48
18.04.2023;22:00;77,1;<7;20;51;24;9,6;1,5;51
18.04.2023;23:00;81,5;<7;20;47;24;8,3;1,4;66
18.04.2023;24:00;75,2;<7;11;61;23;9,4;1,9;56
19.04.2023;01:00;78,3;<7;14;48;23;9,6;2,1;57
19.04.2023;02:00;74,6;<7;<10;58;23;10,3;2,4;74
19.04.2023;03:00;74,5;<7;<10;62;22;10,2;3,2;77
19.04.2023;04:00;78,9;<7;<10;55;22;9,2;2,1;61
19.04.2023;05:00;84,8;<7;18;37;21;8,1;0,7;
19.04.2023;06:00;84,1;<7;22;32;21;8,6;1,4;52
19.04.2023;07:00;83,7;<7;23;;21;9,2;2,5;67
19.04.2023;08:00;81,7;<7;19;40;20;9,9;2,3;66
19.04.2023;09:00;78,0;<7;16;45;20;10,8;2,5;41
19.04.2023;10:00;72,8;<7;17;50;19;11,1;3,1;46
19.04.2023;11:00;64,6;<7;15;60;19;12,5;3,6;38
19.04.2023;12:00;54,4;<7;10;78;19;13,5;4,3;39
19.04.2023;13:00;45,3;<7;<10;92;19;13,9;4,9;35
19.04.2023;14:00;41,2;<7;<10;94;20;14,3;5,0;34
19.04.2023;15:00;35,9;<7;<10;100;20;14,5;4,8;35
19.04.2023;16:00;34,5;<7;<10;104;20;14,3;5,4;38
19.04.2023;17:00;33,6;<7;<10;107;20;14,3;5,3;45
19.04.2023;18:00;33,0;<7;<10;109;20;13,8;5,2;43
19.04.2023;19:00;32,6;;;107;19;13,2;4,3;54
19.04.2023;20:00;36,4;<7;10;105;19;11,5;3,2;53
19.04.2023;21:00;41,9;<7;13;96;19;9,9;2,5;49
19.04.2023;22:00;44,0;<7;11;96;19;9,1;2,7;49
19.04.2023;23:00;48,1;<7;15;89;19;8,2;2,2;53
19.04.2023;24:00;54,1;<7;17;80;19;6,8;1,1;55
20.04.2023;01:00;58,3;<7;14;77;19;6,0;1,5;35
20.04.2023;02:00;67,6;<7;13;64;19;4,2;0,6;
20.04.2023;03:00;80,6;<7;11;46;20;2,1;0,2;
20.04.2023;04:00;79,3;<7;12;50;20;2,5;0,4;
20.04.2023;05:00;63,3;<7;14;68;20;4,5;1,5;4
20.04.2023;06:00;60,2;<7;15;73;19;5,0;2,1;19
20.04.2023;07:00;75,9;<7;16;74;19;4,0;2,2;43
20.04.2023;08:00;78,5;<7;24;65;19;4,2;1,7;46
20.04.2023;09:00;80,2;<7;23;63;19;4,6;1,4;64
20.04.2023;10:00;84,0;<7;24;59;19;4,4;1,9;56
20.04.2023;11:00;89,4;<7;21;59;19;4,4;1,6;84
20.04.2023;12:00;89,1;<7;13;67;19;4,9;2,6;73
20.04.2023;13:00;85,6;<7;15;65;18;6,5;2,4;65
20.04.2023;14:00;81,8;<7;11;72;18;7,4;3,2;87
20.04.2023;15:00;67,7;<7;<10;85;17;9,7;4,2;88
20.04.2023;16:00;62,3;<7;<10;93;17;9,7;3,9;77
20.04.2023;17:00;55,5;<7;<10;95;17;11,3;4,3;79
20.04.2023;18:00;56,2;<7;<10;95;17;10,3;3,2;76
20.04.2023;19:00;57,7;<7;<10;90;17;10,0;2,3;87
20.04.2023;20:00;72,1;;;92;17;7,8;3,3;114
20.04.2023;21:00;83,3;<7;<10;84;16;6,4;1,9;92
20.04.2023;22:00;81,4;<7;11;76;16;6,8;2,4;76
20.04.2023;23:00;87,7;<7;<10;;16;6,3;2,2;65
20.04.2023;24:00;91,4;<7;<10;69;16;6,0;2,2;58
21.04.2023;01:00;92,5;<7;<10;63;16;5,8;1,9;70
21.04.2023;02:00;92,1;<7;<10;60;15;5,7;2,0;78
21.04.2023;03:00;92,5;<7;<10;56;15;5,7;2,0;88
21.04.2023;04:00;93,2;<7;<10;51;15;5,3;1,3;81
21.04.2023;05:00;94,8;<7;13;34;15;3,9;0,7;
21.04.2023;06:00;95,9;<7;19;11;15;2,4;0,1;
21.04.2023;07:00;96,9;12;19;8;15;2,7;0,5;
21.04.2023;08:00;91,2;8;21;35;15;6,0;1,4;60
21.04.2023;09:00;75,1;<7;<10;61;14;9,1;2,4;81
21.04.2023;10:00;70,9;<7;<10;58;14;10,6;3,9;84
21.04.2023;11:00;65,5;<7;<10;65;14;12,2;3,6;86
21.04.2023;12:00;58,8;<7;<10;75;14;13,9;3,8;79
21.04.2023;13:00;54,4;<7;<10;84;14;15,0;4,0;75
21.04.2023;14:00;53,2;<7;<10;83;14;16,0;3,9;83
21.04.2023;15:00;48,5;<7;<10;91;15;17,0;4,5;86
21.04.2023;16:00;42,2;<7;<10;99;14;16,9;4,3;128
21.04.2023;17:00;42,8;<7;<10;101;14;16,7;3,2;157
21.04.2023;18:00;70,6;<7;<10;98;13;12,8;3,0;184
21.04.2023;19:00;64,4;<7;<10;92;13;14,1;1,3;107
21.04.2023;20:00;75,0;<7;<10;96;13;11,7;4,2;121
21.04.2023;21:00;84,0;;;90;13;9,4;1,9;208
21.04.2023;22:00;90,7;<7;11;59;13;8,1;1,1;138
21.04.2023;23:00;94,1;<7;<10;40;12;6,8;0,8;
21.04.2023;24:00;95,3;<7;<10;;12;6,3;0,9;203
22.04.2023;01:00;95,6;<7;11;30;12;6,5;0,3;
22.04.2023;02:00;96,1;<7;<10;28;12;6,3;0,7;
22.04.2023;03:00;96,5;<7;<10;25;12;6,3;0,3;
22.04.2023;04:00;96,7;<7;<10;21;12;6,6;0,4;
22.04.2023;05:00;97,0;<7;<10;25;12;7,1;1,4;173
22.04.2023;06:00;96,5;<7;<10;22;12;7,3;0,5;
22.04.2023;07:00;85,7;<7;<10;60;11;10,5;3,0;186
22.04.2023;08:00;69,7;<7;<10;75;11;13,3;3,6;185
22.04.2023;09:00;62,0;<7;<10;79;11;15,4;3,7;183
22.04.2023;10:00;57,1;<7;<10;81;11;17,3;3,5;179
22.04.2023;11:00;54,7;<7;<10;84;11;18,5;5,2;197
22.04.2023;12:00;52,6;<7;<10;86;11;19,3;4,6;210
22.04.2023;13:00;55,0;<7;<10;88;11;18,6;5,9;210
22.04.2023;14:00;58,1;<7;<10;90;11;18,0;4,8;208
22.04.2023;15:00;64,2;<7;<10;91;11;16,8;4,5;205
22.04.2023;16:00;66,4;<7;<10;93;11;16,6;4,6;202
22.04.2023;17:00;80,0;<7;<10;91;11;14,8;4,1;205
22.04.2023;18:00;86,3;<7;<10;82;11;14,0;3,9;209
22.04.2023;19:00;84,9;<7;<10;73;11;14,0;3,6;211
22.04.2023;20:00;87,8;<7;<10;73;11;12,8;3,3;251
22.04.2023;21:00;91,5;<7;<10;57;11;11,0;3,6;263
22.04.2023;22:00;91,6;;;57;11;9,8;2,2;246
22.04.2023;23:00;93,1;<7;<10;52;12;9,4;2,1;223
22.04.2023;24:00;92,7;<7;<10;49;12;9,9;2,8;223
23.04.2023;01:00;91,6;<7;<10;;12;9,9;3,1;205
23.04.2023;02:00;89,5;<7;<10;62;12;9,3;2,9;198
23.04.2023;03:00;85,5;<7;<10;68;12;9,2;3,6;198
23.04.2023;04:00;85,5;<7;<10;67;12;9,7;3,4;199
23.04.2023;05:00;85,4;<7;<10;64;12;10,1;2,9;195
23.04.2023;06:00;84,7;<7;<10;63;12;10,6;3,3;198
23.04.2023;07:00;83,5;<7;<10;62;12;11,1;2,8;204
23.04.2023;08:00;80,5;<7;<10;63;12;12,1;4,2;203
23.04.2023;09:00;72,6;<7;<10;72;12;13,6;4,4;206
23.04.2023;10:00;64,2;<7;<10;80;12;14,8;4,9;208
23.04.2023;11:00;61,1;<7;<10;82;12;15,3;5,2;203
23.04.2023;12:00;57,5;<7;<10;85;12;15,8;4,9;202
23.04.2023;13:00;51,1;<7;<10;88;11;16,6;4,7;208
23.04.2023;14:00;47,9;<7;<10;90;11;17,3;4,4;193
23.04.2023;15:00;53,3;<7;<10;88;12;16,2;4,2;188
23.04.2023;16:00;76,5;<7;<10;81;12;13,4;2,5;208
23.04.2023;17:00;81,3;<7;<10;79;12;12,9;2,9;175
23.04.2023;18:00;75,5;<7;<10;84;11;12,8;3,8;186
23.04.2023;19:00;76,1;<7;<10;82;11;12,7;4,2;187
23.04.2023;20:00;73,2;<7;<10;80;11;12,4;6,7;217
23.04.2023;21:00;70,5;<7;<10;85;10;11,4;7,2;222
23.04.2023;22:00;71,7;<7;<10;88;<10;11,1;6,9;234
23.04.2023;23:00;74,7;;;89;<10;10,7;5,0;227
23.04.2023;24:00;77,4;<7;<10;88;<10;10,0;5,1;227
24.04.2023;01:00;78,7;<7;<10;87;<10;9,7;4,9;234
24.04.2023;02:00;75,7;<7;<10;;<10;9,0;5,6;235
24.04.2023;03:00;77,0;<7;<10;98;<10;8,4;5,4;224
24.04.2023;04:00;77,9;<7;<10;96;<10;8,2;5,2;227
24.04.2023;05:00;80,4;<7;<10;93;<10;8,0;5,4;224
24.04.2023;06:00;85,9;<7;<10;90;<10;7,5;5,1;225
24.04.2023;07:00;90,4;<7;<10;84;<10;7,0;5,5;229
24.04.2023;08:00;92,9;<7;<10;83;<10;6,9;6,1;241
24.04.2023;09:00;92,2;<7;<10;92;<10;6,7;7,1;259
24.04.2023;10:00;92,8;<7;<10;94;<10;6,9;6,3;255
24.04.2023;11:00;92,1;<7;<10;88;<10;7,5;6,4;263
24.04.2023;12:00;85,2;<7;<10;87;<10;9,1;6,3;256
24.04.2023;13:00;78,2;<7;<10;88;<10;9,6;5,7;267
24.04.2023;14:00;71,6;<7;<10;90;<10;10,3;5,5;260
24.04.2023;15:00;64,2;<7;<10;95;<10;11,3;5,8;273
24.04.2023;16:00;60,2;<7;<10;96;<10;12,0;5,1;272
24.04.2023;17:00;62,0;<7;<10;96;<10;11,0;4,3;281
24.04.2023;18:00;64,4;<7;<10;92;10;10,6;3,6;273
24.04.2023;19:00;70,5;<7;<10;83;11;10,0;2,9;256
24.04.2023;20:00;75,1;<7;<10;78;11;9,3;2,9;274
24.04.2023;21:00;74,9;<7;<10;77;11;8,5;2,1;294
24.04.2023;22:00;77,7;<7;<10;74;12;7,8;1,7;296
24.04.2023;23:00;80,1;<7;<10;72;12;7,2;1,8;292
24.04.2023;24:00;78,7;;;78;12;7,0;2,3;293
25.04.2023;01:00;80,5;<7;<10;78;12;6,6;1,6;282
25.04.2023;02:00;84,2;<7;<10;68;12;5,9;1,3;253
25.04.2023;03:00;83,2;<7;<10;;13;6,0;1,6;288
25.04.2023;04:00;82,7;<7;<10;75;13;6,0;2,1;306
25.04.2023;05:00;85,9;<7;<10;70;13;5,6;1,9;307
25.04.2023;06:00;83,6;<7;11;73;13;5,5;2,0;316
25.04.2023;07:00;83,6;<7;11;71;13;5,6;2,0;302
25.04.2023;08:00;79,5;<7;<10;76;14;5,9;2,8;315
25.04.2023;09:00;73,9;<7;10;77;14;6,2;2,6;303
25.04.2023;10:00;71,0;<7;<10;83;15;6,5;2,8;303
25.04.2023;11:00;62,3;<7;<10;88;15;7,3;3,2;301
25.04.2023;12:00;62,9;<7;<10;88;15;7,6;3,2;300
25.04.2023;13:00;62,3;<7;<10;87;16;8,0;2,9;306
25.04.2023;14:00;57,2;<7;<10;89;15;8,5;3,5;302
25.04.2023;15:00;50,4;<7;<10;98;15;9,9;4,1;315
25.04.2023;16:00;62,2;<7;<10;90;15;7,9;3,1;320
25.04.2023;17:00;62,2;<7;<10;87;15;8,4;2,7;291
25.04.2023;18:00;55,5;<7;<10;88;15;9,2;2,9;303
25.04.2023;19:00;53,4;<7;<10;93;15;8,5;3,2;313
25.04.2023;20:00;59,8;<7;10;87;15;7,8;2,5;333
25.04.2023;21:00;60,9;<7;10;85;15;7,4;2,2;342
25.04.2023;22:00;61,8;<7;<10;83;15;6,8;2,6;337
25.04.2023;23:00;64,8;<7;<10;82;15;6,1;2,4;335
25.04.2023;24:00;69,1;<7;10;76;16;5,1;1,9;322
26.04.2023;01:00;81,6;;;56;16;2,7;1,1;217
26.04.2023;02:00;90,1;<7;<10;43;16;0,8;0,9;192
26.04.2023;03:00;92,1;<7;<10;47;16;-0,1;1,3;181
26.04.2023;04:00;92,8;<7;<10;;15;-0,6;1,3;164
26.04.2023;05:00;93,7;<7;<10;38;15;-1,0;1,3;173
26.04.2023;06:00;94,2;<7;13;35;15;-0,9;1,0;171
26.04.2023;07:00;93,6;<7;25;23;15;0,3;0,4;
26.04.2023;08:00;79,9;<7;19;54;14;3,9;0,2;
26.04.2023;09:00;64,2;<7;<10;87;15;5,9;1,0;71
26.04.2023;10:00;59,0;<7;16;81;14;6,6;1,0;
26.04.2023;11:00;57,0;<7;13;83;14;7,3;1,5;336
26.04.2023;12:00;52,1;<7;<10;88;14;8,6;1,7;16
26.04.2023;13:00;48,5;<7;<10;92;14;9,5;2,1;4
26.04.2023;14:00;48,1;<7;<10;94;14;10,0;2,3;356
26.04.2023;15:00;47,8;<7;<10;96;14;10,3;2,4;351
26.04.2023;16:00;46,1;<7;<10;100;15;11,3;2,7;356
26.04.2023;17:00;47,4;<7;<10;101;15;10,9;2,9;26
26.04.2023;18:00;49,3;<7;<10;101;15;10,0;2,2;41
26.04.2023;19:00;49,3;<7;<10;101;15;9,2;2,3;53
26.04.2023;20:00;52,0;<7;11;93;15;8,4;1,4;43
26.04.2023;21:00;64,3;<7;20;67;16;6,9;0,9;64
26.04.2023;22:00;64,1;<7;20;65;16;6,8;1,3;48
26.04.2023;23:00;78,3;<7;14;47;16;4,6;0,3;
26.04.2023;24:00;81,7;<7;12;45;16;4,1;0,1;
27.04.2023;01:00;83,6;<7;12;43;17;3,5;0,7;
27.04.2023;02:00;86,3;;;40;17;3,2;0,7;
27.04.2023;03:00;86,6;<7;<10;43;17;2,4;0,2;
27.04.2023;04:00;90,6;<7;10;37;17;1,0;0,7;
27.04.2023;05:00;92,5;<7;17;;18;0,2;0,5;
27.04.2023;06:00;93,6;<7;22;22;18;-0,0;0,7;
27.04.2023;07:00;92,8;14;30;14;19;1,5;0,1;
27.04.2023;08:00;76,2;9;32;38;19;5,2;1,2;71
27.04.2023;09:00;62,1;<7;17;66;19;8,0;2,7;72
27.04.2023;10:00;52,8;<7;17;75;19;9,6;2,9;69
27.04.2023;11:00;50,5;<7;12;82;20;10,7;3,0;65
27.04.2023;12:00;49,4;<7;11;86;21;11,8;2,9;61
27.04.2023;13:00;47,5;<7;10;89;21;12,8;2,8;55
27.04.2023;14:00;46,7;<7;10;96;21;13,3;2,8;53
27.04.2023;15:00;45,9;<7;11;100;22;14,1;3,1;45
27.04.2023;16:00;46,5;<7;13;99;22;14,3;3,2;29
27.04.2023;17:00;47,0;<7;13;99;23;14,5;2,8;32
27.04.2023;18:00;49,5;<7;16;96;23;13,8;2,3;43
27.04.2023;19:00;51,4;<7;17;93;24;13,1;2,3;47
27.04.2023;20:00;53,0;<7;22;88;25;12,1;1,7;72
27.04.2023;21:00;57,3;<7;25;81;25;11,1;0,9;77
27.04.2023;22:00;70,2;<7;23;54;25;9,9;0,0;
27.04.2023;23:00;72,8;<7;18;50;25;9,5;0,2;
27.04.2023;24:00;78,2;<7;16;50;26;9,1;1,0;
28.04.2023;01:00;86,6;<7;12;47;26;8,7;1,1;171
28.04.2023;02:00;91,6;<7;<10;47;26;9,0;1,5;167
28.04.2023;03:00;92,6;;;42;25;9,6;0,4;
28.04.2023;04:00;94,3;<7;<10;37;26;9,7;0,9;159
28.04.2023;05:00;95,7;<7;<10;31;25;9,7;0,7;
28.04.2023;06:00;95,4;<7;16;;24;10,1;0,3;
28.04.2023;07:00;95,4;<7;20;21;24;10,5;0,4;
28.04.2023;08:00;94,1;<7;19;27;23;11,7;1,0;
28.04.2023;09:00;93,4;<7;<10;38;22;13,1;2,4;235
28.04.2023;10:00;94,0;<7;<10;37;22;13,7;3,6;256
28.04.2023;11:00;94,9;<7;<10;33;21;14,0;3,2;259
28.04.2023;12:00;88,0;<7;<10;35;20;16,3;3,6;258
28.04.2023;13:00;73,7;<7;<10;47;19;18,7;4,5;256
28.04.2023;14:00;67,8;<7;<10;59;19;19,2;5,0;267
28.04.2023;15:00;62,5;<7;<10;69;18;19,8;6,6;273
28.04.2023;16:00;61,8;<7;<10;71;17;19,2;6,3;275
28.04.2023;17:00;66,8;<7;<10;62;16;17,7;6,2;283
28.04.2023;18:00;69,7;<7;<10;59;15;15,7;5,3;277
28.04.2023;19:00;74,1;<7;<10;58;14;14,9;3,5;276
28.04.2023;20:00;77,4;<7;<10;51;13;14,5;2,6;273
28.04.2023;21:00;77,2;<7;<10;59;12;13,7;5,1;265
28.04.2023;22:00;82,9;<7;<10;56;11;12,8;4,3;262
28.04.2023;23:00;92,7;<7;<10;49;10;11,8;4,0;258
28.04.2023;24:00;90,3;<7;<10;53;<10;11,6;4,3;278
29.04.2023;01:00;86,0;<7;<10;62;<10;11,1;4,4;292
29.04.2023;02:00;84,3;<7;<10;68;<10;10,6;2,9;288
29.04.2023;03:00;86,7;<7;<10;63;10;10,3;2,9;276
29.04.2023;04:00;86,8;;;65;11;10,0;2,6;269
29.04.2023;05:00;88,5;<7;<10;66;11;9,4;3,4;292
29.04.2023;06:00;91,6;<7;<10;62;13;8,6;3,6;312
29.04.2023;07:00;94,1;<7;<10;;13;8,2;3,2;317
29.04.2023;08:00;93,9;<7;<10;65;13;8,2;2,8;316
29.04.2023;09:00;91,9;<7;<10;62;13;8,5;2,6;317
29.04.2023;10:00;89,0;<7;<10;66;14;8,8;2,7;324
29.04.2023;11:00;87,6;<7;<10;69;14;9,0;2,0;329
29.04.2023;12:00;84,9;<7;<10;68;15;9,6;1,5;305
29.04.2023;13:00;80,5;<7;<10;72;15;10,5;2,0;295
29.04.2023;14:00;78,5;<7;<10;75;15;11,1;1,8;327
29.04.2023;15:00;75,4;<7;<10;79;16;11,8;2,7;3
29.04.2023;16:00;73,4;<7;<10;82;17;12,4;2,0;23
29.04.2023;17:00;71,3;<7;<10;84;17;12,6;1,8;48
29.04.2023;18:00;74,4;<7;<10;79;18;12,1;1,5;44
29.04.2023;19:00;75,3;<7;<10;79;19;12,1;1,4;22
29.04.2023;20:00;81,4;<7;16;60;20;11,0;0,9;79
29.04.2023;21:00;91,3;<7;17;34;20;8,2;1,0;193
29.04.2023;22:00;94,7;<7;12;26;20;6,8;1,3;179
29.04.2023;23:00;95,8;<7;10;26;21;6,3;1,0;176
29.04.2023;24:00;96,5;<7;<10;20;21;6,7;;
30.04.2023;01:00;96,2;<7;<10;16;21;7,0;0,1;
30.04.2023;02:00;96,4;;;;21;5,9;0,5;
30.04.2023;03:00;96,9;<7;<10;16;21;4,8;0,3;
30.04.2023;04:00;97,1;<7;10;14;21;4,1;0,2;
30.04.2023;05:00;97,3;<7;14;9;21;3,7;0,5;
30.04.2023;06:00;97,5;<7;11;8;21;3,5;0,3;
30.04.2023;07:00;97,9;<7;<10;12;21;4,8;0,1;
30.04.2023;08:00;93,6;<7;14;29;22;7,7;0,7;
30.04.2023;09:00;81,3;<7;17;40;22;10,6;1,5;
30.04.2023;10:00;66,6;<7;<10;69;23;13,5;2,5;61
30.04.2023;11:00;54,3;<7;<10;87;23;15,0;3,2;69
30.04.2023;12:00;46,2;<7;<10;90;22;16,5;3,6;79
30.04.2023;13:00;44,3;<7;<10;91;22;17,0;3,6;66
30.04.2023;14:00;46,5;<7;<10;107;22;17,2;3,7;58
30.04.2023;15:00;45,0;<7;<10;104;21;18,0;3,5;72
30.04.2023;16:00;44,0;<7;<10;101;21;18,2;3,4;68
30.04.2023;17:00;45,3;<7;<10;97;20;18,2;3,0;54
30.04.2023;18:00;47,4;<7;<10;94;20;17,6;3,0;37
30.04.2023;19:00;50,5;<7;<10;92;19;16,8;2,7;32
30.04.2023;20:00;56,3;<7;<10;85;18;15,1;2,0;32
30.04.2023;21:00;63,6;<7;14;71;18;13,3;1,0;43
30.04.2023;22:00;76,9;<7;15;45;18;10,8;0,4;
30.04.2023;23:00;85,1;<7;13;39;18;9,0;0,6;
30.04.2023;24:00;87,6;<7;14;40;17;8,1;0,6;
01.05.2023;01:00;86,5;<7;13;36;17;8,9;0,4;
01.05.2023;02:00;86,6;<7;11;31;17;9,4;0,2;
01.05.2023;03:00;86,6;;;;17;9,5;0,1;
01.05.2023;04:00;87,9;<7;<10;31;16;9,0;0,2;
01.05.2023;05:00;88,7;<7;<10;32;15;8,3;0,2;
01.05.2023;06:00;88,9;<7;13;28;14;8,2;1,5;186
01.05.2023;07:00;74,3;<7;<10;56;13;10,9;2,1;186
01.05.2023;08:00;64,6;<7;<10;63;13;13,0;2,2;202
01.05.2023;09:00;57,8;<7;<10;68;12;14,7;2,1;215
01.05.2023;10:00;56,7;<7;<10;67;11;15,6;2,3;233
01.05.2023;11:00;55,8;<7;<10;71;11;16,4;2,5;246
01.05.2023;12:00;55,0;<7;<10;79;11;17,4;3,3;281
01.05.2023;13:00;55,9;<7;<10;79;11;17,7;4,0;280
01.05.2023;14:00;54,6;<7;<10;84;11;18,5;4,8;275
01.05.2023;15:00;56,0;<7;<10;88;12;17,3;5,3;290
01.05.2023;16:00;53,0;<7;<10;94;12;16,6;3,2;308
01.05.2023;17:00;77,3;<7;<10;83;12;12,7;3,4;276
01.05.2023;18:00;91,7;<7;<10;72;12;11,1;2,6;194
01.05.2023;19:00;93,6;<7;<10;68;13;11,2;1,4;197
01.05.2023;20:00;94,8;<7;12;54;13;11,5;1,6;216
01.05.2023;21:00;95,1;<7;12;49;14;10,9;1,0;270
01.05.2023;22:00;96,3;<7;13;32;14;9,9;1,1;210
01.05.2023;23:00;97,1;<7;11;41;14;9,4;1,7;257
01.05.2023;24:00;94,2;<7;<10;64;14;9,7;2,0;275
02.05.2023;01:00;91,5;<7;<10;67;15;9,8;2,0;273
02.05.2023;02:00;92,6;<7;<10;60;15;9,4;2,0;276
02.05.2023;03:00;93,9;<7;<10;60;17;9,2;2,8;295
02.05.2023;04:00;95,0;;;;18;9,1;2,0;282
02.05.2023;05:00;94,7;<7;<10;50;20;9,3;1,5;272
02.05.2023;06:00;92,2;<7;<10;54;21;9,6;2,3;313
02.05.2023;07:00;92,1;<7;<10;58;22;9,4;3,2;322
02.05.2023;08:00;92,1;<7;<10;63;22;9,1;2,4;315
02.05.2023;09:00;93,4;<7;10;57;23;9,3;2,0;305
02.05.2023;10:00;85,1;<7;<10;62;23;10,2;2,9;332
02.05.2023;11:00;73,9;<7;<10;72;23;11,0;3,4;310
02.05.2023;12:00;68,0;<7;<10;79;23;11,4;3,4;318
02.05.2023;13:00;68,1;<7;<10;78;24;11,9;2,7;344
02.05.2023;14:00;64,9;<7;<10;83;24;12,1;3,0;340
02.05.2023;15:00;61,4;<7;<10;86;24;12,4;3,0;346
02.05.2023;16:00;55,5;<7;<10;93;24;12,9;2,9;355
02.05.2023;17:00;53,0;<7;<10;99;24;13,0;3,1;348
02.05.2023;18:00;49,3;<7;<10;100;24;13,6;2,6;349
02.05.2023;19:00;49,6;<7;<10;101;24;12,8;2,5;15
02.05.2023;20:00;56,9;<7;<10;92;24;11,4;1,8;55
02.05.2023;21:00;76,8;<7;16;61;23;7,9;0,8;157
02.05.2023;22:00;87,0;<7;12;46;23;5,7;0,5;
02.05.2023;23:00;91,2;<7;11;37;23;4,5;0,3;
02.05.2023;24:00;92,8;<7;12;39;23;3,7;1,0;180
03.05.2023;01:00;93,7;<7;12;39;22;2,9;0,6;
03.05.2023;02:00;94,5;<7;<10;36;21;2,3;0,7;
03.05.2023;03:00;95,2;<7;<10;32;20;1,8;0,8;
03.05.2023;04:00;95,6;<7;<10;31;19;1,3;0,4;
03.05.2023;05:00;95,9;;;;18;0,8;0,4;
03.05.2023;06:00;96,3;<7;19;16;17;0,8;0,8;211
03.05.2023;07:00;95,3;9;26;16;17;2,6;0,2;
03.05.2023;08:00;79,8;8;26;41;17;6,0;1,2;53
03.05.2023;09:00;66,0;<7;11;68;17;9,0;2,4;83
03.05.2023;10:00;55,2;<7;<10;83;17;10,9;3,7;78
03.05.2023;11:00;53,8;<7;<10;83;17;11,8;3,9;74
03.05.2023;12:00;50,7;<7;<10;85;18;13,1;3,3;66
03.05.2023;13:00;48,1;<7;<10;85;16;14,4;3,0;64
03.05.2023;14:00;44,8;<7;<10;92;16;15,4;3,8;60
03.05.2023;15:00;42,6;<7;<10;99;16;16,2;3,5;70
03.05.2023;16:00;39,8;<7;<10;105;16;16,8;3,8;64
03.05.2023;17:00;37,6;<7;<10;108;16;17,4;3,3;64
03.05.2023;18:00;37,0;<7;<10;108;16;17,5;3,1;71
03.05.2023;19:00;37,6;<7;<10;107;16;17,2;3,1;79
03.05.2023;20:00;47,3;<7;15;90;17;14,7;2,0;60
03.05.2023;21:00;59,5;<7;20;68;17;12,3;1,4;63
03.05.2023;22:00;76,5;<7;22;42;17;9,1;0,7;161
03.05.2023;23:00;83,7;<7;17;41;17;7,3;0,5;
03.05.2023;24:00;87,6;<7;14;39;17;6,3;0,3;
04.05.2023;01:00;90,4;<7;11;40;18;5,5;0,1;
04.05.2023;02:00;92,3;<7;16;32;18;4,8;0,3;
04.05.2023;03:00;94,1;<7;17;21;19;4,4;1,1;206
04.05.2023;04:00;94,6;<7;13;25;18;4,2;1,0;185
04.05.2023;05:00;95,1;<7;16;23;18;3,9;0,8;183
04.05.2023;06:00;95,2;;;;18;3,9;0,4;
04.05.2023;07:00;92,7;<7;24;19;18;5,7;0,2;
04.05.2023;08:00;74,0;10;32;32;18;9,3;0,3;
04.05.2023;09:00;62,0;<7;23;46;17;12,9;1,0;
04.05.2023;10:00;53,9;<7;18;57;18;16,4;1,7;23
04.05.2023;11:00;42,1;<7;<10;91;18;20,3;3,5;114
04.05.2023;12:00;38,3;<7;<10;97;17;21,6;4,1;107
04.05.2023;13:00;34,6;<7;<10;101;17;23,0;4,0;110
04.05.2023;14:00;32,2;<7;<10;103;17;24,4;3,9;109
04.05.2023;15:00;30,3;<7;<10;105;17;25,1;3,5;107
04.05.2023;16:00;29,8;<7;<10;107;16;25,8;3,9;117
04.05.2023;17:00;28,0;<7;<10;110;16;26,1;2,8;151
04.05.2023;18:00;27,3;<7;<10;110;16;25,2;2,9;188
04.05.2023;19:00;30,2;<7;<10;112;16;23,7;2,9;183
04.05.2023;20:00;42,1;<7;11;93;15;20,6;1,6;172
04.05.2023;21:00;58,7;<7;13;62;15;17,0;1,9;169
04.05.2023;22:00;64,8;<7;12;59;15;15,6;2,4;180
04.05.2023;23:00;64,4;<7;<10;78;14;16,1;2,9;200
04.05.2023;24:00;63,0;<7;<10;87;14;17,3;2,7;209
05.05.2023;01:00;71,4;<7;<10;72;14;15,8;2,3;221
05.05.2023;02:00;76,3;<7;<10;70;14;15,0;2,4;217
05.05.2023;03:00;76,5;<7;<10;72;14;15,2;2,7;228
05.05.2023;04:00;80,6;<7;<10;68;14;14,4;0,8;
05.05.2023;05:00;83,7;<7;<10;64;14;14,0;2,7;231
05.05.2023;06:00;86,6;<7;<10;57;14;13,4;1,8;208
05.05.2023;07:00;85,3;;;;14;13,9;1,2;190
05.05.2023;08:00;77,7;<7;<10;64;13;15,9;1,7;230
05.05.2023;09:00;72,4;<7;<10;71;14;17,1;2,7;256
05.05.2023;10:00;66,7;<7;<10;79;13;18,4;2,3;246
05.05.2023;11:00;64,6;<7;<10;83;14;18,9;2,3;247
05.05.2023;12:00;65,2;<7;<10;82;14;17,7;3,5;259
05.05.2023;13:00;65,3;<7;<10;83;14;17,6;3,5;245
05.05.2023;14:00;61,2;<7;<10;81;14;18,8;4,3;242
05.05.2023;15:00;60,9;<7;<10;81;14;18,3;4,7;259
05.05.2023;16:00;65,2;<7;<10;82;13;17,4;4,0;249
05.05.2023;17:00;57,9;<7;<10;88;13;18,4;4,3;239
05.05.2023;18:00;56,1;<7;<10;91;13;18,3;4,5;247
05.05.2023;19:00;59,1;<7;<10;88;13;17,5;3,2;273
05.05.2023;20:00;74,2;<7;<10;76;13;14,5;1,5;44
05.05.2023;21:00;81,8;<7;12;65;12;12,7;0,8;98
05.05.2023;22:00;87,3;<7;13;52;12;11,7;1,0;180
05.05.2023;23:00;87,9;<7;<10;52;11;11,7;1,4;175
05.05.2023;24:00;88,2;<7;<10;50;11;11,3;2,1;175
06.05.2023;01:00;88,0;<7;<10;48;10;11,0;1,8;155
06.05.2023;02:00;90,6;<7;<10;44;10;9,8;1,3;140
06.05.2023;03:00;93,5;<7;<10;41;<10;8,8;1,8;158
06.05.2023;04:00;94,6;<7;<10;37;<10;8,3;2,0;174
06.05.2023;05:00;95,4;<7;<10;32;<10;7,9;1,6;179
06.05.2023;06:00;96,1;<7;<10;28;<10;7,9;1,9;180
06.05.2023;07:00;92,2;<7;<10;39;<10;10,4;1,3;175
06.05.2023;08:00;77,8;;;64;<10;13,9;1,6;239
06.05.2023;09:00;70,9;<7;<10;74;<10;15,6;1,8;228
06.05.2023;10:00;65,1;<7;<10;77;<10;17,5;1,6;233
06.05.2023;11:00;60,1;<7;<10;82;<10;18,5;1,9;229
06.05.2023;12:00;57,8;<7;<10;83;<10;19,1;1,8;277
06.05.2023;13:00;55,2;<7;<10;85;<10;19,3;1,4;254
06.05.2023;14:00;64,8;<7;<10;77;<10;18,1;3,0;216
06.05.2023;15:00;70,3;<7;<10;74;<10;17,4;1,9;306
06.05.2023;16:00;72,3;<7;<10;71;<10;17,8;1,5;64
06.05.2023;17:00;70,3;<7;<10;73;<10;17,7;1,5;73
06.05.2023;18:00;72,8;<7;<10;67;<10;17,0;1,4;121
06.05.2023;19:00;79,4;<7;<10;61;<10;16,2;0,9;113
06.05.2023;20:00;80,9;<7;10;54;<10;16,0;0,9;
06.05.2023;21:00;90,0;<7;13;31;<10;14,2;0,6;
06.05.2023;22:00;94,1;<7;<10;17;<10;13,2;0,0;
06.05.2023;23:00;94,9;<7;<10;;<10;12,7;0,4;
06.05.2023;24:00;95,8;<7;<10;12;<10;11,9;0,8;171
07.05.2023;01:00;96,4;<7;<10;13;<10;11,7;1,2;179
07.05.2023;02:00;94,7;<7;<10;24;<10;12,5;1,8;175
07.05.2023;03:00;92,0;<7;<10;30;<10;12,7;0,4;
07.05.2023;04:00;95,3;<7;<10;22;<10;11,5;0,6;
07.05.2023;05:00;96,1;<7;<10;14;<10;11,7;0,0;
07.05.2023;06:00;95,9;<7;<10;11;<10;12,0;0,2;
07.05.2023;07:00;94,1;<7;<10;10;<10;13,2;0,0;
07.05.2023;08:00;86,0;<7;11;20;<10;14,8;0,0;
07.05.2023;09:00;75,9;;;36;<10;16,5;0,3;
07.05.2023;10:00;67,6;<7;<10;54;<10;18,5;1,3;21